Regional Weather Roundup
Issued by NWS

Home | Current Version | Previous Version | Graphics & Text | Print | Product List | Glossary Off
Versions: 1 2 3 4 5 6 7 8 9 10 11 12 13 14 15 16 17 18 19 20 21 22 23 24 25 26 27 28 29 30 31 32 33 34 35 36 37 38 39 40 41 42 43 44 45 46 47 48 49 50

000
ASUS43 KTOP 251108
RWRKS

WEATHER ROUNDUP FOR KANSAS
NATIONAL WEATHER SERVICE GOODLAND KS
500 AM CST SUN JAN 25 2015

NOTE:  "FAIR" INDICATES FEW OR NO CLOUDS BELOW 12,000 FEET WITH NO
SIGNIFICANT WEATHER AND/OR OBSTRUCTIONS TO VISIBILITY.

KSZ001>006-013>018-027>032-041>047-251200-
NORTHWEST KANSAS

CITY           SKY/WX    TMP DP  RH WIND       PRES   REMARKS
GOODLAND       CLEAR     36  26  67 NW17      30.06R WCI  26
HAYS           PTCLDY    41  25  52 NW21G29   29.94S
HILL CITY      CLEAR     40  27  59 NW17G26   29.98R WCI  31
RUSSELL        PTCLDY    42  30  62 NW23G31   29.90R
$$

KSZ061>065-074>080-084>089-251200-
SOUTHWEST KANSAS

CITY           SKY/WX    TMP DP  RH WIND       PRES   REMARKS
DODGE CITY     CLEAR     42  24  49 NW20G31   30.00S
ELKHART          N/A    N/A N/A N/A MISG        N/A
GARDEN CITY    CLEAR     39  25  57 NW22      30.03S WCI  29
GREAT BEND     CLEAR     43  27  52 NW25G32   29.94S
LIBERAL        CLEAR     39  25  56 NW17      30.06F WCI  30
PRATT          CLEAR     41  28  60 NW24G31   29.94S
$$

KSZ066>073-081>083-090>101-251200-
SOUTHEAST KANSAS

CITY           SKY/WX    TMP DP  RH WIND       PRES   REMARKS
CHANUTE        MOCLDY    48  36  63 NW17G28   29.75S
COFFEYVILLE    CLOUDY    51  35  54 NW20G29   29.77S
HUTCHINSON     PTCLDY    47  31  53 NW25G32   29.86S
MEDICINE LODGE   N/A     46  29  51 NW20G32   29.91F
NEWTON         CLOUDY    46  30  53 NW24G31   29.83S
PARSONS        MOCLDY    51  36  56 NW21G29   29.76F
WICHITA INTL   CLEAR     48  32  53 NW25G33   29.84S
WICHITA JABRA  PTCLDY    46  32  58 NW21G31   29.82F
WICHITA MCCONL CLEAR     47  33  57 NW20G32   29.83F
WINFIELD       CLEAR     47  31  53 NW14      29.85F
$$

KSZ007>012-019>026-033>040-048>060-102>105-251200-
NORTHEAST KANSAS

CITY           SKY/WX    TMP DP  RH WIND       PRES   REMARKS
CONCORDIA      CLOUDY    43  34  70 NW25G46   29.82R
EMPORIA        MOCLDY    46  34  62 NW15G32   29.74S
LAWRENCE       CLOUDY    45  37  73 NW21G30   29.68S
MANHATTAN      CLOUDY    45  34  65 NW15G26   29.76S
MARYSVILLE     CLOUDY    39  34  81 N31       29.75R WCI  27
OLATHE IND     LGT RAIN  45  39  79 NW15G24   29.67R
OLATHE EXE     CLOUDY    45  39  79 W9G17     29.65R
SALINA         LGT RAIN  45  37  73 NW28G38   29.84R
TOPEKA BILLARD CLOUDY    46  36  68 NW20G28   29.70R
TOPEKA FORBES  CLOUDY    45  36  70 NW28G38   29.69R
$$


USA.gov is the U.S. government's official web portal to all federal, state and local government web resources and services.